| time (UTC) | temp F | wind direction | speed knots | gust knots | rain 1hr in | rain 24hr in | rain mn in | humidity % | barometer mb |
| 20260506211532 | 53 | 108 | 0.0 | 0.0 | 0.00 | 0.00 | 0.00 | 95 | 1004.1 |
| 20260506211032 | 53 | 111 | 0.0 | 0.0 | 0.00 | 0.00 | 0.00 | 95 | 1004.0 |
| 20260506210532 | 53 | 111 | 0.9 | 0.0 | 0.00 | 0.00 | 0.00 | 95 | 1003.9 |
| 20260506210031 | 53 | 111 | 2.6 | 0.0 | 0.00 | 0.00 | 0.00 | 94 | 1003.9 |
| 20260506205531 | 53 | 90 | 3.5 | 0.0 | 0.00 | 0.00 | 0.00 | 95 | 1003.8 |
| 20260506205031 | 53 | 90 | 4.3 | 0.0 | 0.00 | 0.00 | 0.00 | 95 | 1003.8 |
| 20260506204532 | 54 | 57 | 4.3 | 0.0 | 0.00 | 0.00 | 0.00 | 94 | 1003.8 |
| 20260506204032 | 54 | 51 | 3.5 | 0.0 | 0.00 | 0.00 | 0.00 | 94 | 1003.7 |
| 20260506203532 | 54 | 9 | 3.5 | 0.0 | 0.00 | 0.00 | 0.00 | 94 | 1003.7 |
| 20260506203033 | 55 | 244 | 4.3 | 0.0 | 0.00 | 0.00 | 0.00 | 95 | 1003.6 |
| 20260506202532 | 55 | 250 | 5.2 | 0.0 | 0.00 | 0.00 | 0.00 | 95 | 1003.5 |
| 20260506202030 | 55 | 263 | 6.1 | 0.0 | 0.00 | 0.00 | 0.00 | 95 | 1003.6 |
| 20260506201530 | 55 | 240 | 7.8 | 0.0 | 0.00 | 0.00 | 0.00 | 95 | 1003.6 |
| 20260506201033 | 55 | 251 | 9.6 | 0.0 | 0.00 | 0.00 | 0.00 | 96 | 1003.5 |
| 20260506200529 | 56 | 245 | 7.0 | 0.0 | 0.00 | 0.00 | 0.00 | 96 | 1003.5 |
| 20260506200029 | 56 | 236 | 6.1 | 0.0 | 0.00 | 0.00 | 0.00 | 96 | 1003.4 |
| 20260506195529 | 56 | 244 | 5.2 | 0.0 | 0.00 | 0.00 | 0.00 | 96 | 1003.3 |
| 20260506195029 | 56 | 225 | 4.3 | 0.0 | 0.00 | 0.00 | 0.00 | 96 | 1003.3 |
| 20260506194529 | 56 | 242 | 4.3 | 0.0 | 0.00 | 0.00 | 0.00 | 96 | 1003.4 |
| 20260506194028 | 56 | 221 | 3.5 | 0.0 | 0.00 | 0.00 | 0.00 | 96 | 1003.3 |
| 20260506193533 | 56 | 242 | 2.6 | 0.0 | 0.00 | 0.00 | 0.00 | 96 | 1003.3 |
| 20260506193028 | 56 | 222 | 2.6 | 0.0 | 0.00 | 0.00 | 0.00 | 96 | 1003.4 |
| 20260506192528 | 56 | 220 | 2.6 | 0.0 | 0.00 | 0.00 | 0.00 | 96 | 1003.4 |
| 20260506192028 | 56 | 226 | 2.6 | 0.0 | 0.00 | 0.00 | 0.00 | 96 | 1003.4 |
| 20260506191528 | 56 | 221 | 1.7 | 0.0 | 0.00 | 0.00 | 0.00 | 96 | 1003.4 |
| 20260506191029 | 56 | 226 | 3.5 | 0.0 | 0.00 | 0.00 | 0.00 | 95 | 1003.3 |
| 20260506190527 | 56 | 271 | 4.3 | 0.0 | 0.00 | 0.00 | 0.00 | 95 | 1003.4 |
| 20260506190028 | 56 | 284 | 2.6 | 0.0 | 0.00 | 0.00 | 0.00 | 95 | 1003.3 |
| 20260506185530 | 56 | 281 | 1.7 | 0.0 | 0.00 | 0.00 | 0.00 | 95 | 1003.4 |
| 20260506185027 | 56 | 232 | 0.0 | 0.0 | 0.00 | 0.00 | 0.00 | 96 | 1003.3 |
| 20260506184541 | 56 | 232 | 0.9 | 0.0 | 0.00 | 0.00 | 0.00 | 96 | 1003.3 |
| 20260506184027 | 56 | 232 | 0.9 | 0.0 | 0.00 | 0.00 | 0.00 | 96 | 1003.3 |
| 20260506183530 | 56 | 231 | 0.0 | 0.0 | 0.00 | 0.00 | 0.00 | 96 | 1003.2 |
| 20260506183037 | 56 | 230 | 0.0 | 0.0 | 0.00 | 0.00 | 0.00 | 96 | 1003.3 |
| 20260506182525 | 56 | 230 | 0.9 | 0.0 | 0.00 | 0.00 | 0.00 | 96 | 1003.3 |
| 20260506182026 | 56 | 230 | 0.9 | 0.0 | 0.00 | 0.00 | 0.00 | 96 | 1003.3 |
| 20260506181536 | 56 | 241 | 1.7 | 0.0 | 0.00 | 0.00 | 0.00 | 96 | 1003.4 |
| 20260506181028 | 56 | 253 | 4.3 | 0.0 | 0.00 | 0.00 | 0.00 | 96 | 1003.5 |
| 20260506180525 | 56 | 259 | 5.2 | 0.0 | 0.00 | 0.00 | 0.00 | 96 | 1003.6 |
| 20260506180031 | 57 | 255 | 3.5 | 0.0 | 0.00 | 0.00 | 0.00 | 96 | 1003.7 |
| 20260506175524 | 57 | 171 | 1.7 | 0.0 | 0.00 | 0.00 | 0.00 | 96 | 1003.5 |
| 20260506175024 | 57 | 209 | 3.5 | 0.0 | 0.00 | 0.00 | 0.00 | 96 | 1003.4 |
| 20260506174526 | 56 | 157 | 5.2 | 0.0 | 0.00 | 0.00 | 0.00 | 96 | 1003.4 |
| 20260506174024 | 56 | 140 | 5.2 | 0.0 | 0.00 | 0.00 | 0.00 | 96 | 1003.5 |
| 20260506173526 | 56 | 145 | 3.5 | 0.0 | 0.00 | 0.00 | 0.00 | 96 | 1003.4 |
| 20260506173023 | 56 | 132 | 3.5 | 0.0 | 0.00 | 0.00 | 0.00 | 96 | 1003.5 |
| 20260506172521 | 56 | 147 | 3.5 | 0.0 | 0.00 | 0.00 | 0.00 | 96 | 1003.5 |
| 20260506172021 | 56 | 222 | 3.5 | 0.0 | 0.00 | 0.00 | 0.00 | 96 | 1003.6 |
| 20260506171522 | 56 | 244 | 3.5 | 0.0 | 0.00 | 0.00 | 0.00 | 96 | 1003.7 |
| 20260506171021 | 56 | 260 | 1.7 | 0.0 | 0.00 | 0.00 | 0.00 | 96 | 1003.7 |
| 20260506170522 | 56 | 171 | 1.7 | 0.0 | 0.00 | 0.00 | 0.00 | 96 | 1003.6 |
| 20260506170022 | 56 | 163 | 0.9 | 0.0 | 0.00 | 0.00 | 0.00 | 96 | 1003.8 |
| 20260506165520 | 56 | 164 | 1.7 | 0.0 | 0.00 | 0.00 | 0.00 | 96 | 1003.7 |
| 20260506165023 | 56 | 157 | 1.7 | 0.0 | 0.00 | 0.00 | 0.00 | 96 | 1003.8 |
| 20260506164520 | 56 | 178 | 0.9 | 0.0 | 0.00 | 0.00 | 0.00 | 96 | 1003.8 |
| 20260506164019 | 56 | 200 | 0.9 | 0.0 | 0.00 | 0.00 | 0.00 | 96 | 1003.8 |
| 20260506163521 | 56 | 199 | 0.9 | 0.0 | 0.00 | 0.00 | 0.00 | 96 | 1003.8 |
| 20260506163021 | 56 | 176 | 0.9 | 0.0 | 0.00 | 0.00 | 0.00 | 96 | 1004.0 |
| 20260506162517 | 56 | 203 | 0.9 | 0.0 | 0.00 | 0.00 | 0.00 | 96 | 1004.1 |
| 20260506162020 | 56 | 196 | 1.7 | 0.0 | 0.00 | 0.00 | 0.00 | 97 | 1004.0 |
| 20260506161518 | 56 | 161 | 1.7 | 0.0 | 0.00 | 0.00 | 0.00 | 96 | 1004.1 |
| 20260506161017 | 56 | 228 | 0.9 | 0.0 | 0.00 | 0.00 | 0.00 | 97 | 1004.2 |
| 20260506160519 | 56 | 218 | 1.7 | 0.0 | 0.00 | 0.00 | 0.00 | 97 | 1004.2 |
| 20260506160020 | 55 | 225 | 1.7 | 0.0 | 0.00 | 0.00 | 0.00 | 97 | 1004.3 |
| 20260506155516 | 55 | 221 | 1.7 | 0.0 | 0.00 | 0.00 | 0.00 | 97 | 1004.3 |
| 20260506155017 | 55 | 208 | 2.6 | 0.0 | 0.00 | 0.00 | 0.00 | 97 | 1004.1 |
| 20260506154517 | 55 | 148 | 2.6 | 0.0 | 0.00 | 0.00 | 0.00 | 97 | 1004.0 |
| 20260506154016 | 55 | 143 | 3.5 | 0.0 | 0.00 | 0.00 | 0.00 | 97 | 1004.1 |
| 20260506153518 | 55 | 144 | 4.3 | 0.0 | 0.00 | 0.00 | 0.00 | 97 | 1004.3 |
| 20260506153020 | 54 | 123 | 4.3 | 0.0 | 0.00 | 0.00 | 0.00 | 97 | 1004.4 |
| 20260506152513 | 54 | 157 | 4.3 | 0.0 | 0.00 | 0.00 | 0.00 | 97 | 1004.4 |
| 20260506152015 | 54 | 140 | 5.2 | 0.0 | 0.00 | 0.00 | 0.00 | 97 | 1004.5 |
| 20260506151513 | 53 | 127 | 4.3 | 0.0 | 0.00 | 0.00 | 0.00 | 97 | 1004.6 |
| 20260506151011 | 52 | 130 | 1.7 | 0.0 | 0.00 | 0.00 | 0.00 | 96 | 1004.7 |
| 20260506150510 | 52 | 182 | 0.9 | 0.0 | 0.00 | 0.00 | 0.00 | 96 | 1004.8 |
| 20260506150010 | 52 | 205 | 0.0 | 0.0 | 0.00 | 0.00 | 0.00 | 96 | 1004.8 |
| 20260506145510 | 52 | 277 | 0.0 | 0.0 | 0.00 | 0.00 | 0.00 | 95 | 1005.0 |
| 20260506145008 | 52 | 277 | 0.0 | 0.0 | 0.00 | 0.00 | 0.00 | 95 | 1005.0 |
| 20260506144514 | 52 | 277 | 0.0 | 0.0 | 0.00 | 0.00 | 0.00 | 95 | 1005.0 |
| 20260506144008 | 52 | 277 | 0.9 | 0.0 | 0.00 | 0.00 | 0.00 | 95 | 1005.0 |
| 20260506143508 | 52 | 277 | 0.9 | 0.0 | 0.00 | 0.00 | 0.00 | 95 | 1005.1 |
| 20260506143009 | 52 | 277 | 0.0 | 0.0 | 0.00 | 0.00 | 0.00 | 95 | 1005.1 |
| 20260506142507 | 52 | 277 | 0.0 | 0.0 | 0.00 | 0.00 | 0.00 | 95 | 1005.3 |
| 20260506142007 | 52 | 277 | 0.0 | 0.0 | 0.00 | 0.00 | 0.00 | 95 | 1005.3 |
| 20260506141507 | 52 | 277 | 0.0 | 0.0 | 0.00 | 0.00 | 0.00 | 95 | 1005.4 |
| 20260506141009 | 52 | 277 | 0.0 | 0.0 | 0.00 | 0.00 | 0.00 | 95 | 1005.4 |
| 20260506140511 | 52 | 277 | 0.9 | 0.0 | 0.00 | 0.00 | 0.00 | 95 | 1005.5 |
| 20260506140006 | 52 | 277 | 0.9 | 0.0 | 0.00 | 0.00 | 0.00 | 95 | 1005.4 |
| 20260506135506 | 52 | 277 | 0.0 | 0.0 | 0.00 | 0.00 | 0.00 | 95 | 1005.4 |
| 20260506135006 | 52 | 277 | 0.0 | 0.0 | 0.00 | 0.00 | 0.00 | 95 | 1005.4 |
| 20260506134507 | 52 | 277 | 0.9 | 0.0 | 0.00 | 0.00 | 0.00 | 95 | 1005.4 |
| 20260506134011 | 52 | 277 | 0.9 | 0.0 | 0.00 | 0.00 | 0.00 | 95 | 1005.3 |
| 20260506133508 | 52 | 277 | 1.7 | 0.0 | 0.00 | 0.00 | 0.00 | 95 | 1005.3 |
| 20260506133005 | 52 | 277 | 2.6 | 0.0 | 0.00 | 0.00 | 0.00 | 95 | 1005.1 |
| 20260506132510 | 52 | 277 | 2.6 | 0.0 | 0.00 | 0.00 | 0.00 | 95 | 1005.2 |
| 20260506132005 | 52 | 277 | 3.5 | 0.0 | 0.00 | 0.00 | 0.00 | 95 | 1005.0 |
| 20260506131505 | 52 | 275 | 2.6 | 0.0 | 0.00 | 0.00 | 0.00 | 95 | 1005.2 |
| 20260506131005 | 52 | 270 | 2.6 | 0.0 | 0.00 | 0.00 | 0.00 | 95 | 1005.2 |
| 20260506130507 | 52 | 241 | 1.7 | 0.0 | 0.00 | 0.00 | 0.00 | 95 | 1005.4 |
| 20260506130005 | 52 | 113 | 1.7 | 0.0 | 0.00 | 0.00 | 0.00 | 95 | 1005.2 |
| 20260506125504 | 52 | 113 | 0.9 | 0.0 | 0.00 | 0.00 | 0.00 | 95 | 1005.1 |
| 20260506125005 | 52 | 114 | 0.0 | 0.0 | 0.00 | 0.00 | 0.00 | 95 | 1005.2 |
| 20260506124504 | 52 | 114 | 0.0 | 0.0 | 0.00 | 0.00 | 0.00 | 95 | 1005.2 |
| 20260506124006 | 52 | 114 | 0.0 | 0.0 | 0.00 | 0.00 | 0.00 | 95 | 1005.4 |
| 20260506123504 | 52 | 114 | 0.9 | 0.0 | 0.00 | 0.00 | 0.00 | 95 | 1005.4 |
| 20260506123004 | 52 | 114 | 1.7 | 0.0 | 0.00 | 0.00 | 0.00 | 95 | 1005.5 |
| 20260506122505 | 52 | 115 | 1.7 | 0.0 | 0.00 | 0.00 | 0.00 | 95 | 1005.5 |
| 20260506122004 | 52 | 116 | 1.7 | 0.0 | 0.00 | 0.00 | 0.00 | 95 | 1005.5 |
| 20260506121504 | 52 | 198 | 0.9 | 0.0 | 0.00 | 0.00 | 0.00 | 95 | 1005.6 |
| 20260506121003 | 52 | 198 | 1.7 | 0.0 | 0.00 | 0.00 | 0.00 | 95 | 1005.6 |
| 20260506120503 | 52 | 245 | 0.9 | 0.0 | 0.00 | 0.00 | 0.00 | 95 | 1005.8 |
| 20260506120008 | 52 | 246 | 0.9 | 0.0 | 0.00 | 0.00 | 0.00 | 95 | 1006.1 |
| 20260506115503 | 52 | 234 | 1.7 | 0.0 | 0.00 | 0.00 | 0.00 | 95 | 1005.9 |
| 20260506115001 | 52 | 234 | 1.7 | 0.0 | 0.00 | 0.00 | 0.00 | 95 | 1006.0 |
| 20260506114504 | 51 | 225 | 0.9 | 0.0 | 0.00 | 0.00 | 0.00 | 95 | 1006.0 |
| 20260506114003 | 52 | 223 | 2.6 | 0.0 | 0.00 | 0.00 | 0.00 | 95 | 1005.7 |
| 20260506113502 | 51 | 221 | 3.5 | 0.0 | 0.00 | 0.00 | 0.00 | 95 | 1005.7 |
| 20260506113100 | 51 | 244 | 2.6 | 0.0 | 0.00 | 0.00 | 0.00 | 95 | 1005.7 |
| 20260506112600 | 51 | 242 | 2.6 | 0.0 | 0.00 | 0.00 | 0.00 | 95 | 1005.6 |
| 20260506112059 | 51 | 219 | 1.7 | 0.0 | 0.00 | 0.00 | 0.00 | 95 | 1005.5 |
| 20260506111559 | 51 | 207 | 0.9 | 0.0 | 0.00 | 0.00 | 0.00 | 95 | 1005.5 |
| 20260506111059 | 51 | 205 | 0.0 | 0.0 | 0.00 | 0.00 | 0.00 | 94 | 1005.5 |
| 20260506110559 | 51 | 200 | 0.0 | 0.0 | 0.00 | 0.00 | 0.00 | 95 | 1005.5 |
| 20260506110059 | 51 | 200 | 0.0 | 0.0 | 0.00 | 0.00 | 0.00 | 94 | 1005.5 |
| 20260506105559 | 51 | 200 | 0.0 | 0.0 | 0.00 | 0.00 | 0.00 | 95 | 1005.4 |
| 20260506105059 | 51 | 200 | 0.0 | 0.0 | 0.00 | 0.00 | 0.00 | 94 | 1005.4 |
| 20260506104601 | 51 | 200 | 0.0 | 0.0 | 0.00 | 0.00 | 0.00 | 94 | 1005.5 |
| 20260506104058 | 51 | 200 | 0.0 | 0.0 | 0.00 | 0.00 | 0.00 | 94 | 1005.5 |
| 20260506103558 | 51 | 200 | 0.0 | 0.0 | 0.00 | 0.00 | 0.00 | 94 | 1005.5 |
| 20260506103058 | 51 | 200 | 0.9 | 0.0 | 0.00 | 0.00 | 0.00 | 94 | 1005.8 |
| 20260506102558 | 51 | 200 | 1.7 | 0.0 | 0.00 | 0.00 | 0.00 | 94 | 1005.9 |
| 20260506102059 | 51 | 125 | 1.7 | 0.0 | 0.00 | 0.00 | 0.00 | 94 | 1005.8 |
| 20260506101556 | 51 | 132 | 1.7 | 0.0 | 0.00 | 0.00 | 0.00 | 94 | 1005.7 |
| 20260506101056 | 51 | 222 | 1.7 | 0.0 | 0.00 | 0.00 | 0.00 | 94 | 1005.7 |
| 20260506100556 | 51 | 127 | 0.9 | 0.0 | 0.00 | 0.00 | 0.00 | 94 | 1005.6 |
| 20260506100056 | 51 | 182 | 0.9 | 0.0 | 0.00 | 0.00 | 0.00 | 94 | 1005.6 |
| 20260506095556 | 51 | 246 | 0.9 | 0.0 | 0.00 | 0.00 | 0.00 | 94 | 1005.7 |
| 20260506095056 | 51 | 246 | 1.7 | 0.0 | 0.00 | 0.00 | 0.00 | 94 | 1005.6 |
| 20260506094556 | 51 | 243 | 0.9 | 0.0 | 0.00 | 0.00 | 0.00 | 94 | 1005.6 |
| 20260506094058 | 51 | 249 | 0.9 | 0.0 | 0.00 | 0.00 | 0.00 | 94 | 1005.5 |
| 20260506093555 | 51 | 249 | 0.9 | 0.0 | 0.00 | 0.00 | 0.00 | 94 | 1005.2 |
| 20260506093054 | 51 | 249 | 0.9 | 0.0 | 0.00 | 0.00 | 0.00 | 94 | 1005.1 |
| 20260506092553 | 51 | 250 | 0.0 | 0.0 | 0.00 | 0.00 | 0.00 | 93 | 1005.2 |
| 20260506092053 | 52 | 250 | 0.0 | 0.0 | 0.00 | 0.00 | 0.00 | 93 | 1005.4 |
| 20260506091559 | 52 | 250 | 0.0 | 0.0 | 0.00 | 0.00 | 0.00 | 93 | 1005.5 |
| 20260506091054 | 52 | 250 | 0.0 | 0.0 | 0.00 | 0.00 | 0.00 | 94 | 1005.4 |
| 20260506090555 | 52 | 250 | 0.0 | 0.0 | 0.00 | 0.00 | 0.00 | 94 | 1005.5 |
| 20260506090058 | 52 | 250 | 0.9 | 0.0 | 0.00 | 0.00 | 0.00 | 94 | 1005.5 |
| 20260506085551 | 52 | 250 | 2.6 | 0.0 | 0.00 | 0.00 | 0.00 | 93 | 1005.8 |
| 20260506085051 | 52 | 250 | 2.6 | 0.0 | 0.00 | 0.00 | 0.00 | 93 | 1005.9 |
| 20260506084552 | 52 | 240 | 1.7 | 0.0 | 0.00 | 0.00 | 0.00 | 93 | 1005.7 |
| 20260506084050 | 52 | 225 | 0.9 | 0.0 | 0.00 | 0.00 | 0.00 | 93 | 1005.6 |
| 20260506083549 | 52 | 225 | 1.7 | 0.0 | 0.00 | 0.00 | 0.00 | 93 | 1005.6 |
| 20260506083049 | 52 | 225 | 1.7 | 0.0 | 0.00 | 0.00 | 0.00 | 93 | 1005.7 |
| 20260506082548 | 52 | 150 | 0.0 | 0.0 | 0.00 | 0.00 | 0.00 | 93 | 1005.8 |
| 20260506082048 | 52 | 144 | 0.9 | 0.0 | 0.00 | 0.00 | 0.00 | 93 | 1005.8 |
| 20260506081547 | 52 | 144 | 0.9 | 0.0 | 0.00 | 0.00 | 0.00 | 94 | 1005.7 |
| 20260506081047 | 52 | 144 | 0.9 | 0.0 | 0.00 | 0.00 | 0.00 | 94 | 1005.7 |
| 20260506080547 | 52 | 150 | 0.0 | 0.0 | 0.00 | 0.00 | 0.00 | 94 | 1005.9 |
| 20260506073043 | 53 | 155 | 0.9 | 0.0 | 0.00 | 0.00 | 0.00 | 93 | 1006.3 |
| 20260506072542 | 53 | 155 | 0.9 | 0.0 | 0.00 | 0.00 | 0.00 | 93 | 1006.3 |
| 20260506072042 | 53 | 154 | 0.0 | 0.0 | 0.00 | 0.00 | 0.00 | 93 | 1006.5 |
| 20260506071542 | 53 | 148 | 0.0 | 0.0 | 0.00 | 0.00 | 0.00 | 93 | 1006.6 |
| 20260506071041 | 53 | 146 | 0.0 | 0.0 | 0.00 | 0.00 | 0.00 | 93 | 1006.5 |
| 20260506070541 | 53 | 146 | 0.0 | 0.0 | 0.00 | 0.00 | 0.00 | 93 | 1006.5 |
| 20260506062038 | 53 | 138 | 2.6 | 0.0 | 0.00 | 0.00 | 0.00 | 93 | 1006.4 |
| 20260506061540 | 53 | 138 | 3.5 | 0.0 | 0.00 | 0.00 | 0.00 | 93 | 1006.6 |
| 20260506061038 | 53 | 138 | 2.6 | 0.0 | 0.00 | 0.00 | 0.00 | 93 | 1006.6 |
| 20260506060537 | 53 | 149 | 1.7 | 0.0 | 0.00 | 0.00 | 0.00 | 93 | 1006.5 |
| 20260506051031 | 55 | 263 | 5.2 | 0.0 | 0.00 | 0.00 | 0.00 | 92 | 1006.5 |
| 20260506050530 | 55 | 243 | 4.3 | 0.0 | 0.00 | 0.00 | 0.00 | 92 | 1006.8 |
| 20260506045025 | 56 | 257 | 1.7 | 0.0 | 0.00 | 0.00 | 0.00 | 92 | 1007.0 |
| 20260506044525 | 56 | 218 | 0.0 | 0.0 | 0.00 | 0.00 | 0.00 | 93 | 1006.9 |
| 20260506044024 | 56 | 179 | 0.0 | 0.0 | 0.00 | 0.00 | 0.00 | 93 | 1006.9 |
| 20260506043527 | 56 | 179 | 0.0 | 0.0 | 0.00 | 0.00 | 0.00 | 93 | 1007.1 |
| 20260506043022 | 56 | 179 | 0.0 | 0.0 | 0.00 | 0.00 | 0.00 | 93 | 1007.3 |
| 20260506042522 | 56 | 179 | 0.0 | 0.0 | 0.00 | 0.00 | 0.00 | 93 | 1007.2 |
| 20260506042020 | 56 | 179 | 0.0 | 0.0 | 0.00 | 0.00 | 0.00 | 93 | 1007.3 |
| 20260506041520 | 56 | 179 | 0.0 | 0.0 | 0.00 | 0.00 | 0.00 | 93 | 1007.6 |
| 20260506041020 | 56 | 179 | 0.0 | 0.0 | 0.00 | 0.00 | 0.00 | 93 | 1007.5 |
| 20260506040521 | 56 | 179 | 0.0 | 0.0 | 0.00 | 0.00 | 0.00 | 93 | 1007.5 |
| 20260506040023 | 56 | 179 | 0.0 | 0.0 | 0.00 | 0.00 | 0.00 | 93 | 1007.5 |
| 20260506035519 | 56 | 177 | 0.0 | 0.0 | 0.00 | 0.00 | 0.00 | 93 | 1007.5 |
| 20260506035016 | 56 | 153 | 0.9 | 0.0 | 0.00 | 0.00 | 0.00 | 93 | 1007.3 |
| 20260506034521 | 56 | 153 | 0.9 | 0.0 | 0.00 | 0.00 | 0.00 | 93 | 1007.1 |
| 20260506034017 | 56 | 152 | 0.9 | 0.0 | 0.00 | 0.00 | 0.00 | 94 | 1007.2 |
| 20260506033516 | 56 | 149 | 2.6 | 0.0 | 0.00 | 0.00 | 0.00 | 93 | 1007.2 |
| 20260506033015 | 56 | 149 | 3.5 | 0.0 | 0.00 | 0.00 | 0.00 | 93 | 1006.9 |
| 20260506032515 | 56 | 149 | 1.7 | 0.0 | 0.00 | 0.00 | 0.00 | 93 | 1007.1 |
| 20260506032015 | 56 | 182 | 0.0 | 0.0 | 0.00 | 0.00 | 0.00 | 93 | 1007.1 |
| 20260506031517 | 56 | 182 | 0.0 | 0.0 | 0.00 | 0.00 | 0.00 | 93 | 1007.0 |
| 20260506031015 | 56 | 182 | 1.7 | 0.0 | 0.00 | 0.00 | 0.00 | 93 | 1006.9 |
| 20260506030514 | 55 | 182 | 1.7 | 0.0 | 0.00 | 0.00 | 0.00 | 93 | 1006.8 |
| 20260506030031 | 55 | 268 | 0.9 | 0.0 | 0.00 | 0.00 | 0.00 | 92 | 1006.8 |
| 20260506025514 | 55 | 268 | 1.7 | 0.0 | 0.00 | 0.00 | 0.00 | 92 | 1006.9 |
| 20260506025014 | 55 | 268 | 4.3 | 0.0 | 0.00 | 0.00 | 0.00 | 92 | 1006.9 |
| 20260506024528 | 56 | 277 | 5.2 | 0.0 | 0.00 | 0.00 | 0.00 | 92 | 1006.9 |
| 20260506024012 | 56 | 275 | 6.1 | 0.0 | 0.00 | 0.00 | 0.00 | 92 | 1006.7 |
| 20260506023512 | 56 | 255 | 5.2 | 0.0 | 0.00 | 0.00 | 0.00 | 92 | 1006.5 |
| 20260506023013 | 56 | 246 | 3.5 | 0.0 | 0.00 | 0.00 | 0.00 | 92 | 1006.5 |
| 20260506022511 | 56 | 248 | 3.5 | 0.0 | 0.00 | 0.00 | 0.00 | 91 | 1006.6 |
| 20260506022011 | 56 | 232 | 2.6 | 0.0 | 0.00 | 0.00 | 0.00 | 91 | 1006.6 |
| 20260506021511 | 56 | 244 | 2.6 | 0.0 | 0.00 | 0.00 | 0.00 | 91 | 1006.6 |
| 20260506021013 | 56 | 245 | 2.6 | 0.0 | 0.00 | 0.00 | 0.00 | 91 | 1006.6 |
| 20260506020509 | 57 | 246 | 3.5 | 0.0 | 0.00 | 0.00 | 0.00 | 90 | 1006.6 |
| 20260506020009 | 57 | 244 | 1.7 | 0.0 | 0.00 | 0.00 | 0.00 | 91 | 1006.4 |
| 20260506015509 | 57 | 205 | 1.7 | 0.0 | 0.00 | 0.00 | 0.00 | 92 | 1006.4 |
| 20260506015009 | 57 | 199 | 1.7 | 0.0 | 0.00 | 0.00 | 0.00 | 92 | 1006.5 |
| 20260506014508 | 57 | 149 | 0.9 | 0.0 | 0.00 | 0.00 | 0.00 | 92 | 1006.4 |
| 20260506014007 | 57 | 138 | 1.7 | 0.0 | 0.00 | 0.00 | 0.00 | 93 | 1006.2 |
| 20260506013506 | 57 | 136 | 2.6 | 0.0 | 0.00 | 0.00 | 0.00 | 93 | 1006.0 |
| 20260506013008 | 57 | 136 | 3.5 | 0.0 | 0.00 | 0.00 | 0.00 | 92 | 1005.9 |
| 20260506012505 | 57 | 136 | 1.7 | 0.0 | 0.00 | 0.00 | 0.00 | 92 | 1005.7 |
| 20260506012005 | 57 | 136 | 1.7 | 0.0 | 0.00 | 0.00 | 0.00 | 92 | 1005.7 |
| 20260506011504 | 57 | 136 | 1.7 | 0.0 | 0.00 | 0.00 | 0.00 | 92 | 1005.8 |
| 20260506011004 | 58 | 131 | 2.6 | 0.0 | 0.00 | 0.00 | 0.00 | 92 | 1005.6 |
| 20260506010504 | 58 | 130 | 3.5 | 0.0 | 0.00 | 0.00 | 0.00 | 92 | 1005.5 |
| 20260506010009 | 58 | 130 | 3.5 | 0.0 | 0.00 | 0.00 | 0.00 | 92 | 1005.6 |
| 20260506005503 | 58 | 131 | 4.3 | 0.0 | 0.00 | 0.00 | 0.00 | 92 | 1005.5 |
| 20260506005005 | 58 | 131 | 4.3 | 0.0 | 0.00 | 0.00 | 0.00 | 91 | 1005.6 |
| 20260506004504 | 58 | 135 | 4.3 | 0.0 | 0.00 | 0.00 | 0.00 | 91 | 1005.7 |
| 20260506004003 | 58 | 137 | 3.5 | 0.0 | 0.00 | 0.00 | 0.00 | 92 | 1005.6 |
| 20260506003503 | 58 | 143 | 2.6 | 0.0 | 0.00 | 0.00 | 0.00 | 92 | 1005.6 |
| 20260506003002 | 58 | 150 | 2.6 | 0.0 | 0.00 | 0.00 | 0.00 | 92 | 1005.5 |
| 20260506002504 | 58 | 148 | 2.6 | 0.0 | 0.00 | 0.00 | 0.00 | 92 | 1005.4 |
| 20260506002001 | 58 | 142 | 2.6 | 0.0 | 0.00 | 0.00 | 0.00 | 92 | 1005.1 |
| 20260506001502 | 58 | 140 | 2.6 | 0.0 | 0.00 | 0.00 | 0.00 | 91 | 1004.9 |
| 20260506001001 | 59 | 141 | 2.6 | 0.0 | 0.00 | 0.00 | 0.00 | 90 | 1004.9 |
| 20260506000502 | 59 | 141 | 1.7 | 0.0 | 0.00 | 0.00 | 0.00 | 90 | 1004.8 |
| 20260506000001 | 59 | 141 | 2.6 | 0.0 | 0.00 | 0.00 | 0.00 | 91 | 1004.7 |
| 20260505235500 | 59 | 141 | 2.6 | 0.0 | 0.00 | 0.00 | 0.00 | 91 | 1004.8 |
| 20260505235101 | 59 | 140 | 2.6 | 0.0 | 0.00 | 0.00 | 0.00 | 91 | 1004.8 |
| 20260505234600 | 59 | 140 | 0.9 | 0.0 | 0.00 | 0.00 | 0.00 | 90 | 1004.7 |
| 20260505234100 | 59 | 140 | 0.0 | 0.0 | 0.00 | 0.00 | 0.00 | 89 | 1004.8 |
| 20260505233600 | 59 | 140 | 0.0 | 0.0 | 0.00 | 0.00 | 0.00 | 90 | 1004.7 |
| 20260505233059 | 59 | 140 | 0.0 | 0.0 | 0.00 | 0.00 | 0.00 | 90 | 1004.7 |
| 20260505232559 | 59 | 140 | 0.0 | 0.0 | 0.00 | 0.00 | 0.00 | 90 | 1004.5 |
| 20260505232059 | 59 | 140 | 0.0 | 0.0 | 0.00 | 0.00 | 0.00 | 90 | 1004.4 |
| 20260505231559 | 59 | 140 | 0.9 | 0.0 | 0.00 | 0.00 | 0.00 | 90 | 1004.4 |
| 20260505231058 | 59 | 140 | 0.9 | 0.0 | 0.00 | 0.00 | 0.00 | 90 | 1004.3 |
| 20260505230558 | 59 | 140 | 0.0 | 0.0 | 0.00 | 0.00 | 0.00 | 90 | 1004.4 |
| 20260505230106 | 59 | 140 | 0.9 | 0.0 | 0.00 | 0.00 | 0.00 | 89 | 1004.4 |
| 20260505225558 | 59 | 140 | 0.9 | 0.0 | 0.00 | 0.00 | 0.00 | 89 | 1004.4 |
| 20260505225058 | 59 | 140 | 0.0 | 0.0 | 0.00 | 0.00 | 0.00 | 88 | 1004.3 |
| 20260505224558 | 59 | 140 | 0.9 | 0.0 | 0.00 | 0.00 | 0.00 | 88 | 1004.5 |
| 20260505224057 | 60 | 140 | 1.7 | 0.0 | 0.00 | 0.00 | 0.00 | 88 | 1004.5 |
| 20260505223557 | 60 | 140 | 2.6 | 0.0 | 0.00 | 0.00 | 0.00 | 87 | 1004.5 |
| 20260505223109 | 60 | 140 | 3.5 | 0.0 | 0.00 | 0.00 | 0.00 | 87 | 1004.4 |
| 20260505222556 | 60 | 130 | 3.5 | 0.0 | 0.00 | 0.00 | 0.00 | 87 | 1004.4 |
| 20260505222056 | 60 | 148 | 2.6 | 0.0 | 0.00 | 0.00 | 0.00 | 87 | 1004.5 |
| 20260505221557 | 60 | 159 | 2.6 | 0.0 | 0.00 | 0.00 | 0.00 | 86 | 1004.5 |
| 20260505221101 | 60 | 147 | 3.5 | 0.0 | 0.00 | 0.00 | 0.00 | 86 | 1004.5 |
| 20260505220600 | 60 | 139 | 3.5 | 0.0 | 0.00 | 0.00 | 0.00 | 85 | 1004.5 |
| 20260505220059 | 60 | 178 | 2.6 | 0.0 | 0.00 | 0.00 | 0.00 | 85 | 1005.2 |
| 20260505215555 | 60 | 224 | 2.6 | 0.0 | 0.00 | 0.00 | 0.00 | 86 | 1005.5 |
| 20260505215055 | 60 | 224 | 1.7 | 0.0 | 0.00 | 0.00 | 0.00 | 86 | 1005.3 |
| 20260505214555 | 59 | 162 | 0.9 | 0.0 | 0.00 | 0.00 | 0.00 | 87 | 1004.8 |
| 20260505214055 | 59 | 205 | 0.9 | 0.0 | 0.00 | 0.00 | 0.00 | 85 | 1004.7 |
| 20260505213559 | 59 | 234 | 2.6 | 0.0 | 0.00 | 0.00 | 0.00 | 85 | 1004.6 |
| 20260505213059 | 59 | 226 | 4.3 | 0.0 | 0.00 | 0.00 | 0.00 | 83 | 1004.6 |
| 20260505212554 | 59 | 246 | 4.3 | 0.0 | 0.00 | 0.00 | 0.00 | 83 | 1004.5 |
| 20260505212054 | 59 | 248 | 7.0 | 0.0 | 0.00 | 0.00 | 0.00 | 82 | 1004.3 |